Effective Sunday, March 17, 2024, the National Weather Service National Data Buoy Center will discontinue its Dial-A-Buoy Interactive Voice Response system. For more information, see Service Change Notice 24-06 (PDF).

Station GBWW3 - 9087077 - Green Bay West, WI Image indicating link to RSS feed of recent meteorological observations for station GBWW3


Conditions at GBWW3 as of
(9:00 am CST)
1500 GMT on 03/04/2024:
     

Click on the graph icon in the table below to see a time series plot of the last five days of that observation.

5-day plot - Wind Direction Wind Direction (WDIR): E ( 80 deg true )
5-day plot - Wind Speed Wind Speed (WSPD): 4.1 kts
5-day plot - Wind Gust Wind Gust (GST): 5.1 kts
5-day plot - Atmospheric Pressure Atmospheric Pressure (PRES):29.96 in
5-day plot - Pressure Tendency Pressure Tendency (PTDY):+0.03 in ( Rising )
5-day plot - Air Temperature Air Temperature (ATMP): 43.3 °F
5-day plot - Wind Chill Wind Chill (CHILL): 40.6 °F
5-day plot - Wind Speed at 10 Meters Wind Speed at 10 meters (WSPD10M): 3.9 kts
5-day plot - Wind Speed at 20 Meters Wind Speed at 20 meters (WSPD20M): 5.8 kts
5-day plot -  Wind Speed, Wind Gust and Atmospheric Pressure Combined plot of Wind Speed, Gust, and Air Pressure
NOS Water Level Observation Network Water Level
Previous observations
TIME
(CST)
5-day plot - Wind Direction
WDIR
 
5-day plot - Wind Speed
WSPD
kts
5-day plot - Wind Gust
GST
kts
5-day plot - Wave Height
WVHT
ft
5-day plot - Dominant Wave Period
DPD
sec
5-day plot - Average Wave Period
APD
sec
5-day plot - Mean Wave Direction
MWD
 
5-day plot - Atmospheric Pressure
PRES
in
5-day plot - Pressure Tendency
PTDY
in
5-day plot - Air Temperature
ATMP
°F
5-day plot - Water Temperature
WTMP
°F
5-day plot - Dew Point
DEWP
°F
5-day plot - Salinity
SAL
psu
5-day plot - Visibility
VIS
nmi
5-day plot - Tide (above MLLW)
TIDE
ft
2024-03-04 08:54 am E 2.9 4.1----29.96- 43.0-----
2024-03-04 08:48 am- 0.0 2.9----29.97- 43.7-----
2024-03-04 08:42 am E 2.9 2.9----29.96- 43.5-----
2024-03-04 08:36 amENE 1.0 1.0----29.96- 45.1-----
2024-03-04 08:30 amESE 1.0 1.9----29.96- 45.3-----
2024-03-04 08:24 am- 0.0 1.9----29.96- 44.4-----
2024-03-04 08:18 amNNW 1.0 5.1----29.97- 43.7-----
2024-03-04 08:12 amNNW 4.1 5.1----29.96- 43.9-----
2024-03-04 08:06 amNNW 2.9 4.1----29.97- 44.1-----
2024-03-04 08:00 amWNW 2.9 5.1----29.97+0.07 44.8-----
2024-03-04 07:54 am W 2.9 4.1----29.98- 45.5-----
2024-03-04 07:48 am- 0.0 1.0----29.98- 46.4-----
2024-03-04 07:42 am SW 1.0 1.9----29.98- 44.8-----
2024-03-04 07:36 am SW 1.0 4.1----29.98- 44.6-----
2024-03-04 07:30 amWSW 1.9 2.9----29.98- 44.2-----
2024-03-04 07:24 amWSW 1.9 2.9----29.97- 44.2-----
2024-03-04 07:18 am- 0.0 2.9----29.97- 44.4-----
2024-03-04 07:12 amWSW 1.9 4.1----29.97- 43.5-----
2024-03-04 07:06 amWSW 1.9 2.9----29.97- 42.8-----
2024-03-04 07:00 amWSW 2.9 4.1----29.96+0.08 42.3-----
2024-03-04 06:54 amWSW 2.9 5.1----29.96- 41.5-----
2024-03-04 06:48 am W 4.1 5.1----29.96- 41.4-----
2024-03-04 06:42 amWSW 2.9 7.0----29.95- 40.8-----
2024-03-04 06:36 am W 5.1 7.0----29.94- 41.4-----
2024-03-04 06:30 amWNW 6.0 8.0----29.93- 41.5-----
2024-03-04 06:24 am W 4.1 5.1----29.93- 41.2-----
2024-03-04 06:18 am SW 1.0 2.9----29.93- 41.5-----
2024-03-04 06:12 amWSW 1.9 2.9----29.93- 41.7-----
2024-03-04 06:06 am W 1.9 5.1----29.93- 41.9-----
2024-03-04 06:00 am W 2.9 4.1----29.93+0.06 42.3-----
2024-03-04 05:54 am W 2.9 5.1----29.93- 42.4-----
2024-03-04 05:48 amWSW 1.9 5.1----29.93- 42.1-----
2024-03-04 05:42 am W 4.1 5.1----29.92- 42.3-----
2024-03-04 05:36 am W 4.1 8.0----29.92- 42.3-----
2024-03-04 05:30 am W 6.0 8.9----29.91- 42.1-----
2024-03-04 05:24 am W 6.0 7.0----29.91- 41.5-----
2024-03-04 05:18 am W 5.1 5.1----29.91- 41.9-----
2024-03-04 05:12 am W 4.1 6.0----29.91- 41.5-----
2024-03-04 05:06 am W 5.1 6.0----29.90- 41.2-----
2024-03-04 05:00 am W 2.9 4.1----29.90+0.04 40.5-----
2024-03-04 04:54 am NW 2.9 4.1----29.90- 41.7-----
2024-03-04 04:48 am W 2.9 2.9----29.90- 43.3-----
2024-03-04 04:42 am W 2.9 2.9----29.90- 43.7-----
2024-03-04 04:36 amWSW 1.9 1.9----29.90- 44.6-----
2024-03-04 04:30 am SW 1.0 1.9----29.90- 45.1-----
2024-03-04 04:24 am- 0.0 1.0----29.90- 44.2-----
2024-03-04 04:18 am- 0.0 1.9----29.89- 43.9-----
2024-03-04 04:12 am SW 1.0 1.9----29.89- 44.2-----
2024-03-04 04:06 am- 0.0 2.9----29.89- 44.2-----
2024-03-04 04:00 amWSW 2.9 2.9----29.89+0.07 45.0-----
2024-03-04 03:54 am- 0.0 1.0----29.88- 45.3-----
2024-03-04 03:48 am- 0.0 1.9----29.88- 45.3-----
2024-03-04 03:42 amWSW 1.9 1.9----29.88- 46.0-----
2024-03-04 03:36 amWSW 1.0 1.0----29.88- 46.9-----
2024-03-04 03:30 am- 0.0 1.0----29.88- 46.9-----
2024-03-04 03:24 am- 0.0 1.9----29.88- 47.1-----
2024-03-04 03:18 amWSW 1.0 1.9----29.87- 47.3-----
2024-03-04 03:12 amWSW 1.0 1.9----29.87- 47.5-----
2024-03-04 03:06 amWSW 1.9 1.9----29.87- 47.7-----
2024-03-04 03:00 amWSW 1.9 2.9----29.87+0.11 47.5-----
2024-03-04 02:54 amWSW 2.9 4.1----29.88- 47.7-----
2024-03-04 02:48 am W 2.9 5.1----29.87- 48.0-----
2024-03-04 02:42 am W 2.9 5.1----29.88- 48.2-----
2024-03-04 02:36 am W 5.1 8.0----29.87- 48.7-----
2024-03-04 02:30 am W 6.0 11.1----29.87- 49.3-----
2024-03-04 02:24 am W 5.1 9.9----29.87- 49.5-----
2024-03-04 02:18 am W 6.0 9.9----29.87- 50.0-----
2024-03-04 02:12 am W 8.0 12.0----29.86- 50.5-----
2024-03-04 02:06 am W 7.0 12.0----29.86- 50.4-----
2024-03-04 02:00 am W 8.0 11.1----29.86+0.14 50.5-----
2024-03-04 01:54 am W 8.0 12.0----29.86- 50.9-----
2024-03-04 01:48 am W 8.9 13.0----29.85- 51.3-----
2024-03-04 01:42 am W 6.0 11.1----29.85- 51.6-----
2024-03-04 01:36 am W 8.0 13.0----29.85- 52.2-----
2024-03-04 01:30 am W 7.0 11.1----29.84- 52.3-----
2024-03-04 01:24 am W 6.0 11.1----29.84- 52.9-----
2024-03-04 01:18 am W 6.0 11.1----29.83- 53.4-----
2024-03-04 01:12 am W 5.1 8.0----29.83- 53.8-----
2024-03-04 01:06 am W 5.1 13.0----29.82- 53.8-----
2024-03-04 01:00 am W 8.0 12.0----29.82+0.17 54.5-----
2024-03-04 12:54 am W 8.0 13.0----29.82- 54.9-----
2024-03-04 12:48 am W 8.0 15.0----29.81- 55.0-----
2024-03-04 12:42 am W 6.0 9.9----29.81- 55.2-----
2024-03-04 12:36 am W 2.9 5.1----29.80- 55.0-----
2024-03-04 12:30 amWSW 1.0 4.1----29.80- 55.0-----
2024-03-04 12:24 amWSW 2.9 4.1----29.79- 55.2-----
2024-03-04 12:18 am SW 1.0 4.1----29.78- 55.6-----
2024-03-04 12:12 am SW 1.0 1.9----29.78- 55.8-----
2024-03-04 12:06 am- 0.0 1.9----29.77- 55.6-----
2024-03-04 12:00 am- 0.0 4.1----29.77+0.14 55.8-----
2024-03-03 11:54 pm SW 1.0 5.1----29.76- 55.6-----
2024-03-03 11:48 pmWSW 1.9 2.9----29.76- 55.9-----
2024-03-03 11:42 pm- 0.0 7.0----29.75- 55.9-----
2024-03-03 11:36 pmWSW 1.9 8.0----29.75- 55.8-----
2024-03-03 11:30 pm S 1.9 5.1----29.74- 56.1-----
2024-03-03 11:24 pmSSW 1.0 7.0----29.74- 55.8-----
2024-03-03 11:18 pmSSW 1.0 2.9----29.73- 55.8-----
2024-03-03 11:12 pm SE 1.0 5.1----29.73- 55.8-----
2024-03-03 11:06 pmSSW 1.9 5.1----29.72- 56.1-----
2024-03-03 11:00 pmSSW 1.9 6.0----29.72+0.11 55.8-----
2024-03-03 10:54 pm SW 1.0 4.1----29.72- 55.4-----
2024-03-03 10:48 pm SW 1.0 6.0----29.72- 55.2-----
2024-03-03 10:42 pmWSW 5.1 8.0----29.72- 55.8-----
2024-03-03 10:36 pm W 6.0 8.9----29.72- 55.2-----
2024-03-03 10:30 pmWSW 4.1 9.9----29.70- 56.5-----
2024-03-03 10:24 pm SW 2.9 7.0----29.70- 57.6-----
2024-03-03 10:18 pmSSW 2.9 8.0----29.68- 57.4-----
2024-03-03 10:12 pm S 1.9 12.0----29.67- 57.4-----
2024-03-03 10:06 pmSSW 4.1 18.1----29.66- 57.7-----
2024-03-03 10:00 pmSSW 2.9 15.0----29.65+0.01 57.7-----
2024-03-03 09:54 pm S 2.9 17.1----29.65- 57.9-----
2024-03-03 09:48 pmSSE 8.0 19.0----29.63- 58.3-----
2024-03-03 09:42 pmSSE 12.0 20.0----29.63- 58.5-----
2024-03-03 09:36 pmSSE 9.9 20.0----29.63- 58.5-----
2024-03-03 09:30 pmSSE 8.9 24.1----29.63- 58.3-----
2024-03-03 09:24 pmSSE 8.0 17.1----29.63- 58.3-----
2024-03-03 09:18 pmSSE 8.0 19.0----29.62- 58.3-----
2024-03-03 09:12 pm S 8.9 19.0----29.62- 58.1-----
2024-03-03 09:06 pmSSE 8.0 21.0----29.62- 58.1-----
2024-03-03 09:00 pm S 6.0 15.9----29.62+0.00 58.1-----
2024-03-03 08:54 pmSSE 9.9 20.0----29.62- 58.3-----
2024-03-03 08:48 pmSSE 9.9 22.0----29.62- 58.6-----
2024-03-03 08:42 pmSSE 11.1 27.0----29.61- 58.6-----
2024-03-03 08:36 pmSSE 14.0 26.0----29.60- 58.8-----
2024-03-03 08:30 pmSSE 8.9 21.0----29.61- 58.6-----
2024-03-03 08:24 pmSSE 9.9 22.9----29.61- 58.8-----
2024-03-03 08:18 pmSSE 7.0 26.0----29.62- 58.5-----
2024-03-03 08:12 pmSSE 8.9 24.1----29.62- 58.6-----
2024-03-03 08:06 pmSSE 12.0 20.0----29.62- 58.6-----
2024-03-03 08:00 pmSSE 13.0 20.0----29.62+0.03 58.1-----
2024-03-03 07:54 pmSSE 14.0 22.9----29.62- 58.1-----
2024-03-03 07:48 pmSSE 12.0 21.0----29.62- 57.7-----
2024-03-03 07:42 pm S 7.0 20.0----29.63- 57.6-----
2024-03-03 07:36 pmSSE 9.9 20.0----29.63- 57.6-----
2024-03-03 07:30 pmSSE 8.9 21.0----29.63- 57.6-----
2024-03-03 07:24 pmSSE 7.0 19.0----29.64- 57.6-----
2024-03-03 07:18 pmSSE 9.9 21.0----29.64- 57.7-----
2024-03-03 07:12 pmSSE 8.0 20.0----29.64- 57.7-----
2024-03-03 07:06 pmSSE 9.9 20.0----29.64- 57.7-----
2024-03-03 07:00 pm-------29.65+0.03 57.7-----
2024-03-03 06:54 pm-------29.65- 57.7-----
2024-03-03 06:48 pmSSE 8.0 20.0----29.65- 57.9-----
2024-03-03 06:42 pm S 6.0 20.0----29.65- 58.1-----
2024-03-03 06:36 pm S 8.0 14.0----29.65- 58.5-----
2024-03-03 06:30 pm S 8.9 21.0----29.64-------
2024-03-03 06:24 pmSSE 11.1 17.1----29.64-------
2024-03-03 06:18 pmSSE 8.0 19.0----29.64- 58.8-----
2024-03-03 06:12 pmSSE 8.0 19.0----29.63- 58.8-----
2024-03-03 06:06 pmSSE 11.1 22.0----29.63- 58.8-----
2024-03-03 06:00 pmSSE 8.0 19.0----29.63-0.02 58.8-----
2024-03-03 05:54 pmSSE 9.9 19.0----29.62- 58.8-----
2024-03-03 05:48 pmSSE 8.9 18.1----29.62- 58.8-----
2024-03-03 05:42 pmSSE 8.9 24.1----29.62- 58.8-----
2024-03-03 05:36 pmSSE 11.1 19.0----29.61- 59.0-----
2024-03-03 05:30 pmSSE 8.0 17.1----29.61- 58.8-----
2024-03-03 05:24 pmSSE 7.0 18.1----29.61- 58.8-----
2024-03-03 05:00 pmSSE 9.9 24.1----29.59-0.09 59.0-----
2024-03-03 04:54 pmSSE 14.0 31.1----29.59- 59.2-----
2024-03-03 04:48 pmSSE 12.0 25.1----29.59- 59.0-----
2024-03-03 04:42 pmSSE 13.0 29.9----29.58- 59.0-----
2024-03-03 04:36 pmSSE 12.0 26.0----29.59- 58.8-----
2024-03-03 04:30 pm SE 12.0 26.0----29.59- 58.6-----
2024-03-03 04:24 pmSSE 14.0 22.9----29.59- 58.6-----
2024-03-03 04:18 pmSSE 13.0 25.1----29.60- 58.6-----
2024-03-03 04:12 pmSSE 12.0 28.9----29.61- 58.6-----
2024-03-03 04:06 pm SE 12.0 25.1----29.61- 58.6-----
2024-03-03 04:00 pm SE 14.0 24.1----29.62-0.12 58.8-----
2024-03-03 03:54 pm SE 17.1 22.9----29.62- 58.6-----
2024-03-03 03:48 pmSSE 15.9 25.1----29.62- 58.6-----
2024-03-03 03:42 pmSSE 14.0 27.0----29.63- 58.6-----
2024-03-03 03:36 pmSSE 11.1 21.0----29.63- 58.6-----
2024-03-03 03:30 pmSSE 11.1 21.0----29.65-------
2024-03-03 03:24 pmSSE 15.0 24.1----29.65-------
2024-03-03 03:18 pmSSE 14.0 24.1----29.65- 58.1-----
2024-03-03 03:12 pmSSE 13.0 22.0----29.65- 57.9-----
2024-03-03 03:06 pmSSE 11.1 24.1----29.65- 57.6-----
2024-03-03 03:00 pm SE 12.0 22.9----29.65-0.13------
2024-03-03 02:54 pm SE 13.0 15.9----29.65-------
2024-03-03 02:48 pmSSE 12.0 22.0----29.66- 57.2-----
2024-03-03 02:42 pmSSE 12.0 22.0----29.66- 57.0-----
2024-03-03 02:36 pmSSE 14.0 21.0----29.66- 56.8-----
2024-03-03 02:30 pm--------- 56.8-----
2024-03-03 02:24 pm--------- 56.5-----
2024-03-03 02:18 pm SE 13.0 25.1----29.67- 56.3-----
2024-03-03 02:12 pm SE 9.9 19.0----29.67- 56.3-----
2024-03-03 02:06 pmSSE 7.0 20.0----29.68- 55.9-----
2024-03-03 02:00 pmSSE 15.0 24.1----29.68-0.12 55.0-----
2024-03-03 01:54 pmSSE 7.0 15.9----29.68- 55.2-----
2024-03-03 01:48 pmSSE 8.0 20.0----29.69- 55.0-----
2024-03-03 01:42 pmSSE 8.0 17.1----29.70- 54.9-----
2024-03-03 01:36 pmSSE 8.9 18.1----29.70- 54.1-----
2024-03-03 01:30 pm SE 13.0 17.1----29.70-------
2024-03-03 01:24 pmSSE 11.1 17.1----29.71-------
2024-03-03 01:18 pmSSE 8.9 15.9----29.71-------
2024-03-03 01:12 pmSSE 9.9 19.0----29.72-------
2024-03-03 01:06 pmSSE 8.9 21.0----29.72-------
2024-03-03 01:00 pmSSE 12.0 19.0----29.73-0.09------
2024-03-03 12:54 pm S 7.0 17.1----29.74-------
2024-03-03 12:48 pm--------- 50.4-----
2024-03-03 12:42 pm--------- 50.0-----
2024-03-03 12:36 pm--------- 49.5-----
2024-03-03 12:30 pm SE 9.9 15.0----29.76- 49.3-----
2024-03-03 12:24 pmSSE 7.0 18.1----29.76- 48.6-----
2024-03-03 12:18 pmSSE 9.9 17.1----29.76- 48.2-----
2024-03-03 12:12 pmSSE 7.0 15.9----29.77- 48.0-----
2024-03-03 12:06 pmSSE 8.9 18.1----29.78- 47.5-----
2024-03-03 12:00 pmSSE 7.0 17.1----29.78-0.06 47.3-----
2024-03-03 11:54 amSSE 11.1 18.1----29.78- 47.1-----
2024-03-03 11:48 amSSE 8.0 15.0----29.78- 46.9-----
2024-03-03 11:42 amSSE 6.0 17.1----29.79- 46.6-----
2024-03-03 11:36 amSSE 9.9 17.1----29.79- 46.4-----
2024-03-03 11:30 amSSE 12.0 17.1----29.79- 46.4-----
2024-03-03 11:24 amSSE 9.9 17.1----29.79- 46.2-----
2024-03-03 11:18 amSSE 5.1 15.9----29.80-------
2024-03-03 11:12 amSSE 7.0 14.0----29.80-------
2024-03-03 11:06 amSSE 9.9 15.0----29.80-------
2024-03-03 11:00 amSSE 8.9 15.0----29.80-------
2024-03-03 10:54 amSSE 8.9 17.1----29.80-------
2024-03-03 10:48 amSSE 9.9 15.0----29.80- 45.3-----
2024-03-03 10:42 amSSE 7.0 14.0----29.81- 45.3-----
2024-03-03 10:36 amSSE 7.0 14.0----29.81- 45.1-----
2024-03-03 10:30 amSSE 7.0 18.1----29.81- 45.0-----
2024-03-03 10:24 amSSE 7.0 14.0----29.81- 45.0-----
2024-03-03 10:18 amSSE 8.9 15.0----29.81- 44.8-----
2024-03-03 10:12 amSSE 8.0 15.0----29.81- 44.8-----
2024-03-03 10:06 amSSE 8.0 12.0----29.81- 44.8-----
2024-03-03 10:00 amSSE 7.0 13.0----29.82-0.04 44.6-----
2024-03-03 09:54 amSSE 6.0 14.0----29.82- 44.4-----
2024-03-03 09:48 amSSE 7.0 17.1----29.82- 44.4-----
2024-03-03 09:42 amSSE 8.0 15.9----29.82- 44.2-----
2024-03-03 09:36 amSSE 9.9 18.1----29.83- 44.2-----
2024-03-03 09:30 amSSE 6.0 13.0----29.83- 44.1-----
2024-03-03 09:24 amSSE 8.9 19.0----29.83- 43.9-----
2024-03-03 09:18 amSSE 8.0 14.0----29.83- 43.7-----
2024-03-03 09:12 amSSE 7.0 17.1----29.83- 43.7-----
2024-03-03 09:06 amSSE 9.9 19.0----29.83- 43.5-----
2024-03-03 09:00 amSSE 6.0 14.0----29.84-0.04 43.5-----
2024-03-03 08:54 amSSE 5.1 12.0----29.84- 43.3-----